Voltar ao catálogo

FENGYUN 1C DEB

AtivoSSO
NORAD 29873·DEBRIS·🇨🇳 China

Lançado May 10, 1999 de Taiyuan Satellite Launch Center

Loading…

Próximas Passagens (próximas 24 horas)

TLE

AtualizadoSource: Space-Track

Época: Sep 14, 2026, 22:24 UTC

1 29873U 99025FT  26257.93351484  .00000694  00000-0  49930-3 0  9990
2 29873  99.4088 130.5923 0092235 167.1699 209.8059 13.98403153  1755

Acompanhe FENGYUN 1C DEB em tempo real com AllMySat

Download on the App Store